FW0984 Weather Reports


Display with metric or nautical units.
time (UTC)temp
F
wind
direction
speed
MPH
gust
MPH
rain 1hr
in
rain 24hr
in
rain mn
in
humidity
%
barometer
mb
20260508204541 67 249 0.0 3.0 0.00 0.00 0.00 44 1011.8
20260508203039 67 256 0.0 2.0 0.00 0.00 0.00 42 1011.7
20260508201538 67 263 1.0 4.0 0.00 0.00 0.00 42 1011.9
20260508200047 67 260 0.0 4.0 0.00 0.00 0.00 42 1012.0
20260508194535 68 260 1.0 3.0 0.00 0.00 0.00 40 1012.2
20260508193035 69 274 1.0 5.0 0.00 0.00 0.00 40 1012.1
20260508191533 69 235 0.0 3.0 0.00 0.00 0.00 45 1012.3
20260508190036 69 250 1.0 5.0 0.00 0.00 0.00 41 1012.6
20260508184533 69 264 1.0 3.0 0.00 0.00 0.00 43 1012.9
20260508183027 69 254 2.0 5.0 0.00 0.00 0.00 40 1013.2
20260508181521 68 252 2.0 6.0 0.00 0.00 0.00 44 1013.3
20260508180019 67 273 1.0 4.0 0.00 0.00 0.00 45 1013.6
20260508174524 66 240 0.0 3.0 0.00 0.00 0.00 44 1014.0
20260508173016 67 260 0.0 4.0 0.00 0.00 0.00 45 1014.2
20260508171513 67 253 2.0 7.0 0.00 0.00 0.00 42 1014.5
20260508170010 68 247 1.0 5.0 0.00 0.00 0.00 43 1014.7
20260508164511 67 256 0.0 4.0 0.00 0.00 0.00 47 1015.0
20260508163004 66 256 1.0 4.0 0.00 0.00 0.00 47 1015.2
20260508161602 66 260 2.0 5.0 0.00 0.00 0.00 47 1015.4
20260508160059 65 248 0.0 3.0 0.00 0.00 0.00 47 1015.6
20260508154557 65 254 0.0 4.0 0.00 0.00 0.00 51 1015.7
20260508153050 64 257 1.0 3.0 0.00 0.00 0.00 49 1015.9
20260508151546 63 269 1.0 3.0 0.00 0.00 0.00 52 1016.0
20260508150043 62 255 1.0 3.0 0.00 0.00 0.00 53 1016.2
20260508144538 61 259 0.0 2.0 0.00 0.00 0.00 52 1016.2
20260508143032 59 261 1.0 3.0 0.00 0.00 0.00 55 1016.4
20260508141528 58 257 0.0 2.0 0.00 0.00 0.00 62 1016.7
20260508140023 55 263 1.0 5.0 0.00 0.00 0.00 65 1016.7
20260508134519 53 252 0.0 0.0 0.00 0.00 0.00 70 1016.8
20260508133021 50 237 0.0 0.0 0.00 0.00 0.00 76 1016.9
20260508131510 48 238 0.0 0.0 0.00 0.00 0.00 78 1016.9
20260508130005 47 223 0.0 0.0 0.00 0.00 0.00 80 1016.9
20260508124502 46 198 0.0 1.0 0.00 0.00 0.00 81 1016.8
20260508123109 45 213 0.0 0.0 0.00 0.00 0.00 86 1016.8
20260508121603 44 213 0.0 0.0 0.00 0.00 0.00 90 1016.8
20260508120057 43 140 0.0 0.0 0.00 0.00 0.00 94 1016.8
20260508114550 43 140 0.0 0.0 0.00 0.00 0.00 94 1016.7
20260508113051 42 107 0.0 0.0 0.00 0.00 0.00 94 1016.5
20260508111548 41 107 0.0 0.0 0.00 0.00 0.00 94 1016.5
20260508110049 41 137 0.0 1.0 0.00 0.00 0.00 94 1016.3
20260508104615 41 138 0.0 0.0 0.00 0.00 0.00 93 1016.4
20260508103047 40 80 0.0 0.0 0.00 0.00 0.00 93 1016.4
20260508101549 40 108 0.0 0.0 0.00 0.00 0.00 93 1016.3
20260508100042 39 108 0.0 0.0 0.00 0.00 0.00 93 1016.3
20260508094546 39 108 0.0 0.0 0.00 0.00 0.00 92 1016.4
20260508093041 39 108 0.0 0.0 0.00 0.00 0.00 92 1016.3
20260508091539 39 108 0.0 0.0 0.00 0.00 0.00 92 1016.4
20260508090045 39 108 0.0 0.0 0.00 0.00 0.00 92 1016.3
20260508084538 39 108 0.0 0.0 0.00 0.00 0.00 91 1016.1
20260508083051 39 108 0.0 0.0 0.00 0.00 0.00 90 1016.1
20260508081549 39 108 0.0 0.0 0.00 0.00 0.00 90 1016.0
20260508080034 39 108 0.0 0.0 0.00 0.00 0.00 91 1016.2
20260508074534 39 108 0.0 0.0 0.00 0.00 0.00 91 1016.1
20260508073035 40 108 0.0 0.0 0.00 0.00 0.00 90 1016.1
20260508071531 40 108 0.0 0.0 0.00 0.00 0.00 91 1016.1
20260508070050 40 108 0.0 0.0 0.00 0.00 0.00 90 1016.1
20260508064532 40 108 0.0 0.0 0.00 0.00 0.00 90 1016.5
20260508063027 40 108 0.0 0.0 0.00 0.00 0.00 89 1016.7
20260508061525 40 108 0.0 0.0 0.00 0.00 0.00 88 1016.7
20260508060023 41 108 0.0 0.0 0.00 0.00 0.00 88 1016.8
20260508054522 41 108 0.0 0.0 0.00 0.00 0.00 87 1016.8
20260508053022 41 108 0.0 0.0 0.00 0.00 0.00 87 1016.7
20260508051519 41 108 0.0 0.0 0.00 0.00 0.00 86 1016.6
20260508050021 42 108 0.0 0.0 0.00 0.00 0.00 85 1016.7
20260508044516 42 108 0.0 0.0 0.00 0.00 0.00 83 1016.7
20260508043018 42 108 0.0 0.0 0.00 0.00 0.00 85 1016.7
20260508041512 42 108 0.0 0.0 0.00 0.00 0.00 84 1016.5
20260508040019 43 108 0.0 0.0 0.00 0.00 0.00 81 1016.5
20260508034513 43 108 0.0 0.0 0.00 0.00 0.00 84 1016.5
20260508033010 43 113 0.0 0.0 0.00 0.00 0.00 82 1016.6
20260508031518 44 180 0.0 0.0 0.00 0.00 0.00 82 1016.4
20260508030009 44 180 0.0 0.0 0.00 0.00 0.00 81 1016.6
20260508024508 45 180 0.0 0.0 0.00 0.00 0.00 80 1016.6
20260508023012 45 180 0.0 0.0 0.00 0.00 0.00 77 1016.4
20260508021506 46 180 0.0 0.0 0.00 0.00 0.00 73 1016.4
20260508020007 47 180 0.0 0.0 0.00 0.00 0.00 67 1016.5
20260508014510 49 180 0.0 0.0 0.00 0.00 0.00 66 1016.4
20260508013006 50 180 0.0 0.0 0.00 0.00 0.00 60 1016.4
20260508011506 51 180 0.0 0.0 0.00 0.00 0.00 59 1016.2
20260508010005 52 206 0.0 0.0 0.00 0.00 0.00 52 1016.1
20260508004507 54 169 0.0 0.0 0.00 0.00 0.00 52 1016.1
20260508003005 55 176 0.0 0.0 0.00 0.00 0.00 49 1016.1
20260508001504 55 232 0.0 1.0 0.00 0.00 0.00 46 1015.8
20260508000004 56 191 0.0 2.0 0.00 0.00 0.00 47 1015.8
20260507234504 56 297 0.0 0.0 0.00 0.00 0.00 45 1015.7
20260507233003 57 188 0.0 0.0 0.00 0.00 0.00 43 1015.6
20260507231504 58 236 0.0 0.0 0.00 0.00 0.00 52 1015.5
20260507230001 58 83 0.0 6.0 0.00 0.00 0.00 37 1015.6
20260507224601 58 17 0.0 4.0 0.00 0.00 0.00 38 1015.7
20260507223059 58 194 0.0 3.0 0.00 0.00 0.00 37 1015.5
20260507221601 59 168 0.0 2.0 0.00 0.00 0.00 43 1015.6
20260507220059 59 229 0.0 4.0 0.00 0.00 0.00 38 1015.8
20260507214557 59 63 1.0 4.0 0.00 0.00 0.00 39 1015.8
20260507213106 59 229 0.0 4.0 0.00 0.00 0.00 41 1015.9
20260507211600 60 95 1.0 3.0 0.00 0.00 0.00 38 1015.8
20260507210057 60 5 0.0 4.0 0.00 0.00 0.00 37 1015.6